STARLINK-31837, 61514

Orbit data source: Space-Track

STARLINK-31837, 61514 is a payload satellite owned by SpaceX/Seattle (US) in LEO that was launched on Tue, 15 Oct 2024 UTC via an FALCON 9 launch vehicle from the Air Force Eastern Test Range (AFETR). Payload-class satellites include a variety of spacecraft equipped with specific instruments for various scientific and technological missions. These include communications satellites like Starlink; space stations such as the ISS; scientific satellites like the Hubble; Earth observation satellites from companies like Planet Labs, Umbra, and HawkEye 360; GPS; miniature CubeSats for education and research; and military/defense satellites.

Loading next visibility...
Identifier
61514, 2024-183F
Orbit
LEO
Country
Flag of USUS
Related business
Manufacturer
SpaceX/Seattle
Mission
Operational Commercial Communications
Bus & Motor
STARLINK V2M, Unknown motor
Mass
730 kg wet, ~700 kg dry
Launch date (UTC)
2024-10-15 (1 year ago)
Launch vehicle
FALCON 9
Launch site
Air Force Eastern Test Range (AFETR)
Object type
Payload
Rocket body
Debris
Shape & HBR
Box + 2 Pan, 17.7 m
Radar Cross Section
33.884 m², Large (>1 m²)

Expand to show TLE details & history
Last TLE update: 12 hours ago

TLE from 12 hours ago
0 STARLINK-31837
1 61514U 24183F   25346.95821575 -.00002146  00000-0 -60389-4 0  9992
2 61514  53.1616 185.2882 0001422  87.4129 272.7035 15.30178691 66374
Epoch: 2025-12-12T22:59Z
TLE epoch observation values (Epoch: 2025-12-12T22:59:49.840Z)
Latitude
-0°
Longitude
118.43816°
Altitude
476.133 km
Speed
7.629 km/s
True Right ascension
12h 21m 09s
True Declination
0° 00' 00"
Sunlit
Object was in daylight at epoch
Visualization orbit readout
Latitude
Unknown
Longitude
Unknown
Altitude
Unknown
Speed
Unknown
Apparent Right ascension
Unknown
Apparent Declination
Unknown
Sunlit
N/A
Visualization observer readout
Local Sidereal Time
09:17:54
Azimuth
Unknown
Elevation
Unknown
Doppler factor
Unknown
Orbital elements
Apogee altitude
476.509 km
Perigee altitude
474.56 km
Semi-major axis
6,853.672 km
Eccentricity
0.00014
Inclination
53.1616°
RAAN
185.2882°
Arg. of periapsis
87.4129°
True anomaly
272.68722°
Mean anomaly
272.7035°
Eccentric anomaly
272.69536°
Mean motion
3.82524 °/min
Orbital period
94.11 mins
BSTAR
-0.000060389
Loading maneuver chart data...
Computing Atmospheric mass density...
Loading historical data...
Loading historical data...
Loading historical data...
Loading historical data...
Loading historical data...
Loading historical data...
Loading historical data...

Documentation

Showing up to 5 results
|